This demonstration page uses our WeatherBlox Daily Observations layout. Learn more.

Left ArrowRight Arrow

47.50024, -111.30081

Hourly Observations for July 19, 2020

Temp ( °F °C ) Dew Point ( °F °C ) Humidity (%) Winds ( mph kmh ) Pressure ( in mb ) Visibility ( mi km ) Precip ( " mm )
12:53 am 00:53 Clear 55 12.8 46 7.8 72 72 SSW 6 9 30.00 1016 10 16 0.00 0.00
1:53 am 01:53 Clear 52 11.1 45 7.2 77 77 W 3 6 30.01 1016 10 16 0.00 0.00
2:53 am 02:53 Mostly Clear 53 11.7 45 7.2 74 74 W 3 6 29.99 1016 10 16 0.00 0.00
3:53 am 03:53 Clear 48 8.9 43 6.1 83 83 SW 7 11 29.99 1016 10 16 0.00 0.00
4:53 am 04:53 Mostly Clear 52 11.1 44 6.7 75 75 SW 9 15 29.98 1015 10 16 0.00 0.00
5:53 am 05:53 Sunny 51 10.6 43 6.1 74 74 SW 8 13 29.99 1016 10 16 0.00 0.00
6:53 am 06:53 Sunny 57 13.9 43 6.1 60 60 SSW 10 17 29.97 1015 10 16 0.00 0.00
7:53 am 07:53 Sunny 62 16.7 44 6.7 52 52 SW 12 19 29.98 1015 10 16 0.00 0.00
8:53 am 08:53 Sunny 66 18.9 45 7.2 47 47 SW 8 13 29.98 1015 10 16 0.00 0.00
9:53 am 09:53 Sunny 72 22.2 42 5.6 34 34 WSW 10 17 29.99 1016 10 16 0.00 0.00
10:53 am 10:53 Sunny 76 24.4 44 6.7 32 32 WSW 10 17 29.98 1015 10 16 0.00 0.00
11:53 am 11:53 Sunny 77 25 40 4.4 26 26 Calm 29.98 1015 10 16 0.00 0.00
12:53 pm 12:53 Sunny 79 26.1 39 3.9 24 24 VRB 5 7 29.97 1015 10 16 0.00 0.00
12:57 pm 12:57 Sunny 81 27.2 40 4.4 23 23 W 14 22 29.78 1008 10 16 0.00 0.00
1:53 pm 13:53 Sunny 80 26.7 40 4.4 24 24 NNW 10 17 29.97 1015 10 16 0.00 0.00
2:53 pm 14:53 Sunny 82 27.8 40 4.4 22 22 NW 7 11 29.96 1015 10 16 0.00 0.00
3:53 pm 15:53 Sunny 83 28.3 40 4.4 22 22 NW 10 17 29.96 1015 10 16 0.00 0.00
4:53 pm 16:53 Sunny 83 28.3 41 5 23 23 WNW 13 20 29.94 1014 10 16 0.00 0.00
5:53 pm 17:53 Sunny 83 28.3 41 5 23 23 W 6 9 29.93 1014 10 16 0.00 0.00
6:53 pm 18:53 Mostly Cloudy 80 26.7 41 5 25 25 NNE 7 11 29.92 1013 10 16 0.00 0.00
7:53 pm 19:53 Mostly Sunny 75 23.9 46 7.8 36 36 NE 7 11 29.92 1013 10 16 0.00 0.00
8:53 pm 20:53 Mostly Cloudy 74 23.3 45 7.2 36 36 NNE 7 11 29.93 1013 10 16 0.00 0.00
9:53 pm 21:53 Partly Cloudy 71 21.7 44 6.7 38 38 E 5 7 29.94 1014 10 16 0.00 0.00
10:26 pm 22:26 Mostly Cloudy 65 18.3 46 7.8 51 51 NNE 15 24 29.92 1013 10 16 0.00 0.00
10:53 pm 22:53 Mostly Clear 65 18.3 45 7.2 49 49 NE 13 20 29.98 1015 10 16 0.00 0.00
11:53 pm 23:53 Partly Cloudy 62 16.7 47 8.3 58 58 NE 14 22 30.01 1016 10 16 0.00 0.00

Powered by AerisWeather